Weather in Bayonne

France     43°29′29″N   1°28′26″W
temp.,
°C
wind,
m/s
gust,
m/s
humid.,
%
clouds,
%
prec.,
mm/h
press.,
hPa
HPBL,
m
4 december, sat
sat401:00+11sw41082100 0.3 1018275
04:00+10s47855 0.0 1015118
07:00+10ssw4882100 0.0 1014168
10:00+11w91886100 1.8 10161241
13:00+12w916825 3.4 10181444
16:00+11wnw91578100 2.0 10191302
19:00+10wnw101571100 3.6 10201421
22:00+10wnw101475100 2.6 10191333
5 december, sun
sun501:00+10wnw121683100 5.8 10171462
04:00+10wnw121678100 3.5 10151561
07:00+10nw121773100 6.3 10151749
10:00+10nw121671100 2.6 10161713
13:00+10nw10156799 5.0 10171810
16:00+10nw10156780 2.2 10171570
19:00+9nnw8126942 4.1 10191108
22:00+9nw81271100 2.1 10211001
6 december, mon
mon601:00+10nw7116366 2.7 10211063
04:00+10nw6979100 0.8 1021757
07:00+10nw5978100 1.3 1021744
10:00+11wnw3588100 0.7 1021333
13:00+11wsw5788100 3.6 1019500
16:00+12w91889100 4.8 10181134
19:00+12wnw9138299 5.8 1022949
22:00+11nw697788 1.1 1024762
7 december, tue
tue701:00+11nw347669 1.1 1024527
04:00+10s1177100 0.1 102295
07:00+8se348882 0.1 101876
10:00+8sse3482100 0.0 1015124
13:00+11se3581100 0.0 1010198
16:00+12s41478100 0.9 1007589
19:00+11wnw111788100 3.9 10101342
22:00+10w71273100 1.3 10111281
8 december, wed
wed801:00+9wsw5977100 2.4 1010948
04:00+6s36863 0.6 1008181
07:00+7sw487994 0.6 1006552
10:00+8sw71285100 1.7 10061119
13:00+7w10168295 5.5 10071627
16:00+8w12158399 4.2 10081263
19:00+9wnw81374100 10.6 10081576
22:00+6sw71087100 3.1 1009614